Location: Bavegemberg
(50.9500°N, 3.8833°E)
Time: 15:08:43
(UTC+00:00)

Cosmos 1455 - Pass Details

Date: 23 May 2024
Orbit: 445 x 460 km, 82.5° (Epoch: 18 June)

Event Time Altitude Azimuth Distance (km) Brightness Sun altitude
Rises 02:00:38 0° 338° (NNW) 2,461 6.2 -12.1°
Reaches altitude 10° 02:03:00 10° 323° (NW) 1,585 4.9 -11.9°
Maximum altitude 02:05:43 22° 271° (W) 1,032 3.4 -11.7°
Enters shadow 02:07:11 17° 236° (SW) 1,214 3.5 -11.5°
